STARLINK-36033

Last updated on Fri Dec 19 2025 00:02:08 GMT+0000 (Coordinated Universal Time)

1 66893U 25283R 25352.58336806 -.01424304 00000+0 -91126-2 0 9998 2 66893 53.1551 44.3771 0000978 67.1362 85.3784 15.78379993 3367
UTC large
Height (km)
Speed (km/s)
/
Latitude / Longitude
Inclination (degrees)
Orbital Period (minutes)
Azimuth
Elevation
Range (km)
Doppler Factor

Next 0 passes for location: London (51.5072 / 0.1276)

Sorry there are no passes over London.